CZ-3B DEB, 42473

Orbit data source: Space-Track

CZ-3B DEB, 42473 is space debris in HEO originally from a launch on Mon, 19 Dec 2011 UTC launched from the Xichang Space Center, China (XSC). Debris objects in space refer to the collection of defunct objects orbiting the Earth. Examples of debris include non-operational satellites, rocket bodies, and fragments generated from explosions, collisions, or faulty payload assembly.

Loading next visibility...
Identifier
42473, 2011-077AN
Orbit
HEO
Country
Flag of CNCN / PRC
Related business
Manufacturer
CALT
Mission
Spacecraft
Bus & Motor
Unknown
Mass
Unknown
Launch date (UTC)
2011-12-19 (15 years ago)
Launch vehicle
Unknown
Launch site
Xichang Space Center, China (XSC)
Object type
Payload
Rocket body
Debris
Shape & HBR
Unknown shape, 2.1 m
Radar Cross Section
Large (>1 m²)

Expand to show TLE details & history
Last TLE update: 2 days ago

TLE from 2 days ago
0 CZ-3B DEB
1 42473U 11077AN  26263.38538426 -.00000266  00000-0  00000+0 0  9998
2 42473  23.5716  45.4035 7203940 134.8262 313.3543  1.69258005 64703
Epoch: 2026-09-20T09:14Z
TLE epoch observation values (Epoch: 2026-09-20T09:14:57.200Z)
Latitude
-0°
Longitude
-92.58795°
Altitude
22,602.062 km
Speed
3.756 km/s
True Right ascension
03h 01m 43s
True Declination
0° 00' 00"
Sunlit
Object was in daylight at epoch
Visualization orbit readout
Latitude
Unknown
Longitude
Unknown
Altitude
Unknown
Speed
Unknown
Apparent Right ascension
Unknown
Apparent Declination
Unknown
Sunlit
N/A
Visualization observer readout
Local Sidereal Time
19:55:13
Azimuth
Unknown
Elevation
Unknown
Doppler factor
Unknown
Orbital elements
Apogee altitude
44,795.523 km
Perigee altitude
1,938.831 km
Semi-major axis
29,745.314 km
Eccentricity
0.72039
Inclination
23.5716°
RAAN
45.4035°
Arg. of periapsis
134.8262°
True anomaly
225.39378°
Mean anomaly
313.3543°
Eccentric anomaly
272.10666°
Mean motion
0.42307 °/min
Orbital period
850.92 mins
BSTAR
0
Loading maneuver chart data...
Computing Atmospheric mass density...
Loading historical data...
Loading historical data...
Loading historical data...
Loading historical data...
Loading historical data...
Loading historical data...
Loading historical data...

Documentation

Showing up to 5 results
|